Location: Dąbki
(54.3786°N, 16.3141°E)
Time: 23:27:21
(UTC+01:00)

ISS - Visible Passes

Search period start: 23 January 2019 00:00
Search period end: 02 February 2019 00:00
Orbit: 404 x 410 km, 51.6° (Epoch: 24 January)

Date Brightness Start Highest point End Pass type
(mag) Time Alt. Az. Time Alt. Az. Time Alt. Az.
23 Jan -1.0 18:40:58 10° S 18:41:05 10° S 18:41:05 10° S visible
24 Jan -0.8 19:24:32 10° SW 19:24:47 12° SW 19:24:47 12° SW visible
25 Jan -2.0 18:33:36 10° SSW 18:35:41 22° S 18:35:41 22° S visible
26 Jan -1.7 17:42:55 10° S 17:45:06 17° SSE 17:46:30 13° ESE visible
26 Jan -1.4 19:17:56 10° WSW 19:19:14 20° SW 19:19:14 20° SW visible
27 Jan -2.8 18:26:46 10° SW 18:29:48 34° SSE 18:30:00 33° SSE visible
28 Jan -2.3 17:35:44 10° SSW 17:38:32 26° SSE 17:40:43 14° ESE visible
28 Jan -2.1 19:11:29 10° WSW 19:13:26 31° SW 19:13:26 31° SW visible
29 Jan -3.2 18:20:10 10° WSW 18:23:21 45° S 18:24:07 37° SE visible
29 Jan -0.5 19:56:26 10° W 19:56:50 13° W 19:56:50 13° W visible
30 Jan -2.8 17:28:55 10° SW 17:32:01 37° SSE 17:34:47 12° E visible
30 Jan -2.7 19:05:03 10° W 19:07:30 41° SW 19:07:30 41° SW visible
31 Jan -3.4 18:13:40 10° WSW 18:16:54 52° S 18:18:09 31° ESE visible
31 Jan -0.8 19:50:04 10° W 19:50:52 16° W 19:50:52 16° W visible
01 Feb -3.1 17:22:18 10° WSW 17:25:30 48° S 17:28:43 10° E visible
01 Feb -3.0 18:58:37 10° W 19:01:32 44° SSW 19:01:32 44° SSW visible
